Miscellaneous Local Product
Issued by NWS North Platte, NE

Home | Current Version | Previous Version | Graphics & Text | Print | Product List | Glossary On
Versions: 1 2 3 4 5 6 7 8 9 10 11 12 13 14 15 16 17 18 19 20 21 22 23 24 25 26 27 28 29 30 31 32 33 34 35 36 37 38 39 40 41 42 43 44 45 46 47 48 49 50
000
AXUS43 KLBF 021510
MISLBF


WESTERN AND NORTH CENTRAL NEBRASKA HOURLY WEATHER ROUNDUP
NATIONAL WEATHER SERVICE NORTH PLATTE NE
900 AM CST FRI DEC 02 2016

NOTE: "FAIR" INDICATES FEW OR NO CLOUDS BELOW 12,000 FEET WITH NO
SIGNIFICANT WEATHER AND/OR OBSTRUCTIONS TO VISIBILITY.

NOTE: STATIONS NOT REPORTING VARIABLES SUCH AS SKY/WEATHER OR
PRESSURE ARE PROVIDED BY RAWS AND APRS NETWORKS AND ARE NOT UNDER
NATIONAL WEATHER SERVICE QUALITY CONTROL.

...OBSERVATIONS IN AND NEAR THE EASTERN PANHANDLE OF NEBRASKA...

CITY           SKY/WX    TMP DP  RH WIND       PRES   REMARKS
PINE RIDGE     CLEAR     13  11  92 CALM      30.18R
CHADRON        CLEAR     23  19  85 SW5       30.18R WCI  17
ALLIANCE       CLEAR     16  12  84 W3        30.16R
SIDNEY         CLEAR     21  16  81 NW5       30.17R WCI  15
$$

...OBSERVATIONS IN NORTHERN NEBRASKA AND FAR SOUTHERN SOUTH DAKOTA...

CITY           SKY/WX    TMP DP  RH WIND       PRES   REMARKS
WINNER         CLOUDY    27  24  89 W5        30.23R WCI  22
VALENTINE      CLOUDY    25  21  85 CALM      30.20R
THEDFORD       CLEAR     23  21  93 CALM      30.20R
AINSWORTH      CLOUDY    25  24  96 NW5       30.20R WCI  19
O`NEILL        PTSUNNY   26  25  94 NW6       30.22R WCI  20
ORD            SUNNY     23  20  88 CALM      30.23R
BROKEN BOW     SUNNY     26  24  92 CALM      30.21R
VALENTINE NWR    N/A     24  22  91 CALM        N/A
BUTTE            N/A     28  26  94 NW5         N/A  WCI  23
HALSEY           N/A     23  21  91 CALM        N/A
CHAMBERS         N/A     25  22  89 CALM        N/A
EWING            N/A     25  24  93 CALM        N/A
$$

...OBSERVATIONS IN SOUTHWEST NEBRASKA AND FAR NORTHEAST COLORADO...

CITY           SKY/WX    TMP DP  RH WIND       PRES   REMARKS
HOLYOKE        FAIR      28  19  69 NW8       30.18R WCI  20
IMPERIAL       CLEAR     23  15  71 NW5       30.19R WCI  17
OGALLALA       CLEAR     19  16  85 CALM      30.20R
NORTH PLATTE   CLEAR     20  15  81 NW8       30.21R WCI  10
MCCOOK         SUNNY     21  14  74 W3        30.21R
LEXINGTON      SUNNY     22  19  87 NW5       30.23R WCI  15
STAPLETON        N/A     21  19  93 CALM        N/A
GOTHENBURG       N/A     20  15  80 W3          N/A
CALLAWAY         N/A     24  22  92 CALM        N/A
$$

...OBSERVATIONS IN CENTRAL LINCOLN COUNTY AREA...

CITY           SKY/WX    TMP DP  RH WIND       PRES   REMARKS
N.P. AIRPORT   CLEAR     20  15  81 NW8       30.21R WCI  10
N.P. DOWNTOWN    N/A     21  17  83 CALM        N/A
N.P. SOUTHEAST   N/A     22  17  79 CALM        N/A
N.P. HILLCREST   N/A     19  16  87 CALM        N/A
$$

...SOME OBSERVATIONS FROM AROUND THE REGION...

CITY           SKY/WX    TMP DP  RH WIND       PRES   REMARKS
LARAMIE        FOG        9   7  92 CALM      30.08R VSB 1/2
CHEYENNE       CLEAR     19  12  74 NW7       30.11R WCI  10
DENVER         CLOUDY    25  13  60 SW7       30.16R WCI  17
AKRON          CLEAR     23  16  74 W8        30.16R WCI  14
SCOTTSBLUFF    CLEAR     18  13  80 NW6       30.18R WCI  10
RAPID CITY     MOCLDY    24  19  81 NW3       30.16R
BISMARCK       CLOUDY    25  18  74 CALM      30.25R
PIERRE         CLOUDY    28  27  96 CALM      30.22R
SIOUX FALLS    CLOUDY    31  28  89 N5        30.22R WCI  26
OMAHA          MOSUNNY   32  28  85 CALM      30.26R
GRAND ISLAND   SUNNY     26  23  88 CALM      30.24R
KANSAS CITY    SUNNY     34  27  75 CALM      30.26R
WICHITA        MOSUNNY   39  27  62 N3        30.21R
OKLAHOMA CITY  PTSUNNY   37  29  72 NW6       30.16R WCI  32
DALLAS         PTSUNNY   51  38  60 SE5       30.16R
AMARILLO       CLOUDY    29  21  72 N8        30.13R WCI  21
DODGE CITY     SUNNY     33  16  49 N7        30.21R WCI  27
HAYS           SUNNY     23  18  81 SW5       30.24R WCI  17
GOODLAND       CLOUDY    22  14  71 W7        30.19R WCI  13
$$




USA.gov is the U.S. government's official web portal to all federal, state and local government web resources and services.